| time (UTC) | temp C | wind direction | speed KPH | gust KPH | rain 1hr cm | rain 24hr cm | rain mn cm | humidity % | barometer mb |
| 20260507190037 | 5 | 131 | 1.6 | 6.4 | 0.00 | 0.53 | 0.15 | 81 | 1017.7 |
| 20260507185508 | 5 | 0 | 0.0 | 3.2 | 0.00 | 0.56 | 0.15 | 80 | 1017.7 |
| 20260507185010 | 5 | 0 | 0.0 | 3.2 | 0.00 | 0.56 | 0.15 | 81 | 1017.7 |
| 20260507184537 | 5 | 123 | 0.0 | 3.2 | 0.00 | 0.56 | 0.15 | 80 | 1017.7 |
| 20260507184009 | 5 | 0 | 0.0 | 1.6 | 0.00 | 0.56 | 0.15 | 83 | 1017.7 |
| 20260507183509 | 5 | 0 | 0.0 | 1.6 | 0.00 | 0.56 | 0.15 | 85 | 1017.6 |
| 20260507183029 | 5 | 0 | 0.0 | 1.6 | 0.00 | 0.56 | 0.15 | 85 | 1017.5 |
| 20260507182510 | 4 | 0 | 0.0 | 1.6 | 0.00 | 0.56 | 0.15 | 85 | 1017.7 |
| 20260507182011 | 4 | 126 | 0.0 | 1.6 | 0.00 | 0.56 | 0.15 | 88 | 1017.6 |
| 20260507181528 | 4 | 0 | 0.0 | 1.6 | 0.00 | 0.56 | 0.15 | 87 | 1017.7 |
| 20260507181010 | 4 | 0 | 0.0 | 1.6 | 0.00 | 0.56 | 0.15 | 90 | 1017.7 |
| 20260507180510 | 4 | 0 | 0.0 | 1.6 | 0.00 | 0.56 | 0.15 | 92 | 1017.6 |
| 20260507180032 | 4 | 0 | 0.0 | 1.6 | 0.00 | 0.56 | 0.15 | 93 | 1017.7 |
| 20260507175511 | 3 | 0 | 0.0 | 1.6 | 0.00 | 0.56 | 0.15 | 94 | 1017.7 |
| 20260507175012 | 3 | 0 | 0.0 | 1.6 | 0.00 | 0.56 | 0.15 | 94 | 1017.6 |
| 20260507174536 | 3 | 0 | 0.0 | 1.6 | 0.00 | 0.56 | 0.15 | 95 | 1017.7 |
| 20260507174010 | 3 | 0 | 0.0 | 1.6 | 0.00 | 0.56 | 0.15 | 95 | 1017.6 |
| 20260507173511 | 3 | 0 | 0.0 | 1.6 | 0.00 | 0.56 | 0.15 | 95 | 1017.7 |
| 20260507173033 | 3 | 0 | 0.0 | 1.6 | 0.00 | 0.56 | 0.15 | 95 | 1017.7 |
| 20260507172509 | 3 | 0 | 0.0 | 1.6 | 0.00 | 0.56 | 0.15 | 95 | 1017.8 |
| 20260507172010 | 3 | 0 | 0.0 | 1.6 | 0.00 | 0.56 | 0.15 | 95 | 1017.7 |
| 20260507171532 | 3 | 103 | 0.0 | 1.6 | 0.00 | 0.56 | 0.15 | 95 | 1017.7 |
| 20260507171011 | 3 | 0 | 0.0 | 1.6 | 0.00 | 0.56 | 0.15 | 96 | 1017.7 |
| 20260507170513 | 2 | 0 | 0.0 | 1.6 | 0.00 | 0.56 | 0.15 | 96 | 1017.8 |
| 20260507170028 | 2 | 119 | 0.0 | 1.6 | 0.00 | 0.56 | 0.15 | 96 | 1017.7 |
| 20260507165509 | 2 | 0 | 0.0 | 1.6 | 0.00 | 0.56 | 0.15 | 96 | 1017.8 |
| 20260507165008 | 2 | 128 | 0.0 | 0.0 | 0.00 | 0.56 | 0.15 | 96 | 1017.9 |
| 20260507164530 | 2 | 0 | 0.0 | 0.0 | 0.00 | 0.56 | 0.15 | 96 | 1017.8 |
| 20260507164014 | 2 | 0 | 0.0 | 0.0 | 0.00 | 0.56 | 0.15 | 96 | 1017.8 |
| 20260507163510 | 2 | 0 | 0.0 | 1.6 | 0.00 | 0.56 | 0.15 | 96 | 1017.9 |
| 20260507163030 | 2 | 0 | 0.0 | 1.6 | 0.00 | 0.56 | 0.15 | 96 | 1017.9 |
| 20260507162513 | 2 | 0 | 0.0 | 1.6 | 0.00 | 0.56 | 0.15 | 96 | 1017.9 |
| 20260507162009 | 2 | 0 | 0.0 | 1.6 | 0.00 | 0.56 | 0.15 | 96 | 1017.9 |
| 20260507161527 | 2 | 0 | 0.0 | 1.6 | 0.00 | 0.56 | 0.15 | 96 | 1017.9 |
| 20260507161010 | 2 | 0 | 0.0 | 1.6 | 0.00 | 0.56 | 0.15 | 96 | 1017.9 |
| 20260507160508 | 2 | 0 | 0.0 | 1.6 | 0.00 | 0.56 | 0.15 | 96 | 1017.8 |
| 20260507160028 | 2 | 128 | 0.0 | 1.6 | 0.00 | 0.56 | 0.15 | 96 | 1017.9 |
| 20260507155510 | 2 | 0 | 0.0 | 1.6 | 0.00 | 0.56 | 0.15 | 95 | 1018.0 |
| 20260507155010 | 2 | 39 | 0.0 | 1.6 | 0.00 | 0.56 | 0.15 | 95 | 1017.9 |
| 20260507154533 | 2 | 0 | 0.0 | 1.6 | 0.00 | 0.56 | 0.15 | 95 | 1018.0 |
| 20260507154010 | 2 | 0 | 0.0 | 1.6 | 0.00 | 0.56 | 0.15 | 96 | 1018.0 |
| 20260507153509 | 2 | 40 | 0.0 | 1.6 | 0.00 | 0.56 | 0.15 | 96 | 1018.0 |
| 20260507153030 | 2 | 0 | 0.0 | 1.6 | 0.00 | 0.56 | 0.15 | 96 | 1017.9 |
| 20260507152513 | 2 | 0 | 0.0 | 1.6 | 0.00 | 0.56 | 0.15 | 96 | 1018.0 |
| 20260507152010 | 2 | 0 | 0.0 | 1.6 | 0.00 | 0.56 | 0.15 | 96 | 1018.0 |
| 20260507151530 | 2 | 0 | 0.0 | 0.0 | 0.00 | 0.56 | 0.15 | 96 | 1018.0 |
| 20260507151009 | 2 | 0 | 0.0 | 1.6 | 0.00 | 0.56 | 0.15 | 95 | 1018.0 |
| 20260507150510 | 2 | 0 | 0.0 | 1.6 | 0.00 | 0.56 | 0.15 | 96 | 1018.0 |
| 20260507150029 | 2 | 0 | 0.0 | 0.0 | 0.00 | 0.56 | 0.15 | 95 | 1017.8 |
| 20260507145510 | 2 | 0 | 0.0 | 0.0 | 0.00 | 0.56 | 0.15 | 95 | 1017.8 |
| 20260507145011 | 1 | 0 | 0.0 | 0.0 | 0.00 | 0.56 | 0.15 | 95 | 1017.8 |
| 20260507144529 | 1 | 0 | 0.0 | 1.6 | 0.00 | 0.56 | 0.15 | 95 | 1017.8 |
| 20260507144011 | 1 | 0 | 0.0 | 1.6 | 0.00 | 0.56 | 0.15 | 95 | 1018.0 |
| 20260507143513 | 2 | 290 | 0.0 | 1.6 | 0.00 | 0.56 | 0.15 | 95 | 1017.8 |
| 20260507143027 | 1 | 290 | 0.0 | 1.6 | 0.00 | 0.56 | 0.15 | 95 | 1017.8 |
| 20260507142509 | 1 | 0 | 0.0 | 1.6 | 0.00 | 0.56 | 0.15 | 95 | 1017.8 |
| 20260507142010 | 1 | 0 | 0.0 | 0.0 | 0.00 | 0.56 | 0.15 | 95 | 1017.8 |
| 20260507141530 | 1 | 0 | 0.0 | 0.0 | 0.00 | 0.56 | 0.15 | 95 | 1017.8 |
| 20260507141012 | 1 | 0 | 0.0 | 0.0 | 0.00 | 0.56 | 0.15 | 95 | 1017.7 |
| 20260507140511 | 1 | 0 | 0.0 | 1.6 | 0.00 | 0.56 | 0.15 | 95 | 1017.7 |
| 20260507140028 | 2 | 0 | 0.0 | 1.6 | 0.00 | 0.56 | 0.15 | 95 | 1017.7 |
| 20260507135512 | 2 | 0 | 0.0 | 1.6 | 0.00 | 0.56 | 0.15 | 95 | 1017.7 |
| 20260507135010 | 2 | 0 | 0.0 | 1.6 | 0.00 | 0.56 | 0.15 | 95 | 1017.7 |
| 20260507134530 | 2 | 0 | 0.0 | 1.6 | 0.00 | 0.56 | 0.15 | 95 | 1017.7 |
| 20260507134014 | 2 | 0 | 0.0 | 1.6 | 0.00 | 0.56 | 0.15 | 95 | 1017.7 |
| 20260507133510 | 2 | 0 | 0.0 | 1.6 | 0.00 | 0.56 | 0.15 | 95 | 1017.6 |
| 20260507133030 | 2 | 0 | 0.0 | 0.0 | 0.00 | 0.56 | 0.15 | 95 | 1017.6 |
| 20260507132513 | 2 | 0 | 0.0 | 0.0 | 0.00 | 0.56 | 0.15 | 95 | 1017.6 |
| 20260507132010 | 2 | 0 | 0.0 | 1.6 | 0.00 | 0.56 | 0.15 | 95 | 1017.6 |
| 20260507131527 | 2 | 0 | 0.0 | 1.6 | 0.00 | 0.56 | 0.15 | 95 | 1017.5 |
| 20260507131012 | 2 | 0 | 0.0 | 1.6 | 0.00 | 0.56 | 0.15 | 95 | 1017.5 |
| 20260507130510 | 2 | 0 | 0.0 | 0.0 | 0.00 | 0.56 | 0.15 | 95 | 1017.5 |
| 20260507130029 | 2 | 0 | 0.0 | 0.0 | 0.00 | 0.56 | 0.15 | 95 | 1017.5 |
| 20260507125514 | 2 | 0 | 0.0 | 0.0 | 0.00 | 0.56 | 0.15 | 95 | 1017.5 |
| 20260507125009 | 2 | 0 | 0.0 | 0.0 | 0.00 | 0.56 | 0.15 | 95 | 1017.4 |
| 20260507124528 | 2 | 0 | 0.0 | 0.0 | 0.00 | 0.56 | 0.15 | 95 | 1017.4 |
| 20260507124011 | 2 | 0 | 0.0 | 0.0 | 0.00 | 0.56 | 0.15 | 95 | 1017.4 |
| 20260507123510 | 2 | 0 | 0.0 | 0.0 | 0.00 | 0.56 | 0.15 | 95 | 1017.4 |
| 20260507123033 | 2 | 0 | 0.0 | 0.0 | 0.00 | 0.56 | 0.15 | 95 | 1017.4 |
| 20260507122510 | 2 | 0 | 0.0 | 0.0 | 0.00 | 0.56 | 0.15 | 95 | 1017.4 |
| 20260507122009 | 2 | 0 | 0.0 | 0.0 | 0.00 | 0.56 | 0.15 | 95 | 1017.5 |
| 20260507121537 | 2 | 0 | 0.0 | 0.0 | 0.03 | 0.56 | 0.15 | 95 | 1017.4 |
| 20260507121012 | 2 | 0 | 0.0 | 0.0 | 0.03 | 0.56 | 0.15 | 95 | 1017.4 |
| 20260507120509 | 2 | 0 | 0.0 | 0.0 | 0.03 | 0.56 | 0.15 | 95 | 1017.5 |
| 20260507120030 | 2 | 0 | 0.0 | 0.0 | 0.03 | 0.56 | 0.15 | 95 | 1017.5 |
| 20260507115510 | 2 | 0 | 0.0 | 0.0 | 0.03 | 0.56 | 0.15 | 95 | 1017.5 |
| 20260507115010 | 2 | 0 | 0.0 | 0.0 | 0.03 | 0.56 | 0.15 | 95 | 1017.7 |
| 20260507114530 | 2 | 0 | 0.0 | 0.0 | 0.03 | 0.56 | 0.15 | 95 | 1017.6 |
| 20260507114010 | 2 | 0 | 0.0 | 0.0 | 0.03 | 0.56 | 0.15 | 95 | 1017.7 |
| 20260507113509 | 2 | 0 | 0.0 | 0.0 | 0.03 | 0.56 | 0.15 | 95 | 1017.6 |
| 20260507113034 | 2 | 0 | 0.0 | 0.0 | 0.03 | 0.56 | 0.15 | 95 | 1017.5 |
| 20260507112508 | 2 | 0 | 0.0 | 0.0 | 0.03 | 0.56 | 0.15 | 95 | 1017.6 |
| 20260507112017 | 2 | 0 | 0.0 | 0.0 | 0.00 | 0.53 | 0.13 | 95 | 1017.7 |
| 20260507111529 | 2 | 0 | 0.0 | 0.0 | 0.00 | 0.53 | 0.13 | 95 | 1017.7 |
| 20260507111011 | 2 | 0 | 0.0 | 0.0 | 0.00 | 0.53 | 0.13 | 95 | 1017.6 |
| 20260507110516 | 2 | 0 | 0.0 | 0.0 | 0.00 | 0.53 | 0.13 | 95 | 1017.5 |
| 20260507110031 | 2 | 0 | 0.0 | 0.0 | 0.00 | 0.53 | 0.13 | 95 | 1017.6 |
| 20260507105512 | 2 | 0 | 0.0 | 0.0 | 0.00 | 0.53 | 0.13 | 95 | 1017.7 |
| 20260507105007 | 2 | 0 | 0.0 | 0.0 | 0.00 | 0.53 | 0.13 | 95 | 1017.6 |
| 20260507104528 | 2 | 0 | 0.0 | 0.0 | 0.00 | 0.53 | 0.13 | 95 | 1017.6 |
| 20260507104008 | 2 | 0 | 0.0 | 0.0 | 0.00 | 0.53 | 0.13 | 95 | 1017.5 |
| 20260507103508 | 2 | 0 | 0.0 | 0.0 | 0.00 | 0.53 | 0.13 | 95 | 1017.4 |
| 20260507103027 | 2 | 0 | 0.0 | 0.0 | 0.00 | 0.53 | 0.13 | 95 | 1017.4 |
| 20260507102512 | 2 | 0 | 0.0 | 0.0 | 0.00 | 0.53 | 0.13 | 95 | 1017.4 |
| 20260507102011 | 2 | 0 | 0.0 | 0.0 | 0.03 | 0.53 | 0.13 | 95 | 1017.2 |
| 20260507101534 | 2 | 0 | 0.0 | 0.0 | 0.03 | 0.53 | 0.13 | 95 | 1017.2 |
| 20260507101009 | 2 | 0 | 0.0 | 1.6 | 0.03 | 0.53 | 0.13 | 95 | 1017.3 |
| 20260507100508 | 2 | 0 | 0.0 | 1.6 | 0.05 | 0.53 | 0.13 | 95 | 1017.3 |
| 20260507100034 | 3 | 0 | 0.0 | 1.6 | 0.05 | 0.53 | 0.13 | 95 | 1017.3 |
| 20260507095511 | 3 | 0 | 0.0 | 0.0 | 0.05 | 0.53 | 0.13 | 95 | 1017.2 |
| 20260507095013 | 3 | 0 | 0.0 | 0.0 | 0.08 | 0.53 | 0.13 | 95 | 1017.3 |
| 20260507094530 | 3 | 0 | 0.0 | 0.0 | 0.08 | 0.53 | 0.13 | 95 | 1017.2 |
| 20260507094010 | 3 | 0 | 0.0 | 0.0 | 0.08 | 0.53 | 0.13 | 95 | 1017.3 |
| 20260507093507 | 3 | 0 | 0.0 | 0.0 | 0.10 | 0.53 | 0.13 | 95 | 1017.3 |
| 20260507093037 | 3 | 0 | 0.0 | 0.0 | 0.10 | 0.53 | 0.13 | 94 | 1017.2 |
| 20260507092510 | 3 | 0 | 0.0 | 1.6 | 0.10 | 0.53 | 0.13 | 94 | 1017.2 |
| 20260507092010 | 3 | 0 | 0.0 | 1.6 | 0.08 | 0.51 | 0.10 | 94 | 1017.2 |
| 20260507091528 | 3 | 0 | 0.0 | 1.6 | 0.08 | 0.51 | 0.10 | 94 | 1017.2 |
| 20260507091009 | 3 | 0 | 0.0 | 0.0 | 0.10 | 0.51 | 0.10 | 94 | 1017.2 |
| 20260507090511 | 3 | 0 | 0.0 | 0.0 | 0.08 | 0.48 | 0.08 | 94 | 1017.3 |
| 20260507090032 | 3 | 0 | 0.0 | 0.0 | 0.08 | 0.48 | 0.08 | 94 | 1017.2 |
| 20260507085510 | 3 | 0 | 0.0 | 0.0 | 0.10 | 0.48 | 0.08 | 94 | 1017.0 |
| 20260507085010 | 3 | 0 | 0.0 | 0.0 | 0.10 | 0.46 | 0.05 | 94 | 1016.8 |
| 20260507084528 | 3 | 0 | 0.0 | 0.0 | 0.13 | 0.46 | 0.05 | 94 | 1016.8 |
| 20260507084013 | 3 | 0 | 0.0 | 0.0 | 0.13 | 0.46 | 0.05 | 94 | 1016.7 |
| 20260507083511 | 3 | 0 | 0.0 | 0.0 | 0.10 | 0.43 | 0.03 | 94 | 1016.7 |
| 20260507083037 | 3 | 0 | 0.0 | 0.0 | 0.10 | 0.43 | 0.03 | 94 | 1016.6 |
| 20260507082510 | 3 | 0 | 0.0 | 0.0 | 0.10 | 0.43 | 0.03 | 94 | 1016.5 |
| 20260507082009 | 3 | 135 | 0.0 | 1.6 | 0.13 | 0.43 | 0.03 | 94 | 1016.6 |
| 20260507081529 | 3 | 0 | 0.0 | 1.6 | 0.10 | 0.41 | 0.00 | 94 | 1016.5 |
| 20260507081010 | 3 | 0 | 0.0 | 1.6 | 0.10 | 0.41 | 0.00 | 94 | 1016.5 |
| 20260507080511 | 3 | 0 | 0.0 | 1.6 | 0.10 | 0.41 | 0.00 | 94 | 1016.4 |
| 20260507080030 | 3 | 0 | 0.0 | 1.6 | 0.10 | 0.41 | 0.00 | 94 | 1016.4 |
| 20260507075509 | 3 | 0 | 0.0 | 1.6 | 0.08 | 0.38 | 0.38 | 94 | 1016.4 |
| 20260507075011 | 3 | 259 | 0.0 | 1.6 | 0.05 | 0.36 | 0.36 | 94 | 1016.4 |
| 20260507074529 | 3 | 0 | 0.0 | 1.6 | 0.03 | 0.33 | 0.33 | 94 | 1016.4 |
| 20260507074009 | 3 | 0 | 0.0 | 1.6 | 0.03 | 0.33 | 0.33 | 94 | 1016.3 |
| 20260507073512 | 3 | 0 | 0.0 | 0.0 | 0.03 | 0.33 | 0.33 | 94 | 1016.2 |
| 20260507073030 | 3 | 0 | 0.0 | 0.0 | 0.03 | 0.33 | 0.33 | 94 | 1016.3 |
| 20260507072509 | 3 | 0 | 0.0 | 1.6 | 0.03 | 0.33 | 0.33 | 94 | 1016.2 |
| 20260507072012 | 3 | 0 | 0.0 | 1.6 | 0.00 | 0.30 | 0.30 | 94 | 1016.0 |
| 20260507071535 | 3 | 0 | 0.0 | 1.6 | 0.00 | 0.30 | 0.30 | 94 | 1016.0 |
| 20260507071017 | 3 | 0 | 0.0 | 1.6 | 0.00 | 0.30 | 0.30 | 94 | 1016.0 |
| 20260507070510 | 3 | 0 | 0.0 | 1.6 | 0.00 | 0.30 | 0.30 | 94 | 1016.0 |
| 20260507070031 | 4 | 243 | 0.0 | 1.6 | 0.00 | 0.30 | 0.30 | 94 | 1015.9 |
| 20260507065512 | 3 | 250 | 0.0 | 1.6 | 0.00 | 0.30 | 0.30 | 94 | 1015.9 |
| 20260507065010 | 4 | 159 | 0.0 | 0.0 | 0.00 | 0.30 | 0.30 | 94 | 1015.8 |
| 20260507064529 | 4 | 0 | 0.0 | 0.0 | 0.00 | 0.30 | 0.30 | 94 | 1015.7 |
| 20260507064007 | 4 | 0 | 0.0 | 0.0 | 0.03 | 0.30 | 0.30 | 94 | 1015.7 |
| 20260507063512 | 4 | 0 | 0.0 | 0.0 | 0.03 | 0.30 | 0.30 | 94 | 1015.7 |
| 20260507063032 | 4 | 0 | 0.0 | 0.0 | 0.03 | 0.30 | 0.30 | 94 | 1015.7 |
| 20260507062510 | 4 | 0 | 0.0 | 0.0 | 0.03 | 0.30 | 0.30 | 94 | 1015.7 |
| 20260507062012 | 4 | 0 | 0.0 | 0.0 | 0.05 | 0.30 | 0.30 | 93 | 1015.7 |
| 20260507061528 | 4 | 0 | 0.0 | 0.0 | 0.05 | 0.30 | 0.30 | 93 | 1015.6 |
| 20260507061010 | 4 | 0 | 0.0 | 0.0 | 0.05 | 0.30 | 0.30 | 93 | 1015.6 |
| 20260507060507 | 4 | 0 | 0.0 | 0.0 | 0.08 | 0.30 | 0.30 | 93 | 1015.5 |
| 20260507060030 | 4 | 0 | 0.0 | 0.0 | 0.08 | 0.30 | 0.30 | 93 | 1015.3 |
| 20260507055509 | 4 | 0 | 0.0 | 0.0 | 0.10 | 0.30 | 0.30 | 92 | 1015.3 |
| 20260507055009 | 4 | 0 | 0.0 | 0.0 | 0.10 | 0.30 | 0.30 | 92 | 1015.2 |
| 20260507054528 | 4 | 0 | 0.0 | 0.0 | 0.10 | 0.30 | 0.30 | 92 | 1015.1 |
| 20260507054012 | 4 | 0 | 0.0 | 0.0 | 0.08 | 0.28 | 0.28 | 91 | 1015.3 |
| 20260507053510 | 5 | 0 | 0.0 | 1.6 | 0.08 | 0.28 | 0.28 | 91 | 1015.3 |
| 20260507053028 | 5 | 159 | 0.0 | 1.6 | 0.08 | 0.28 | 0.28 | 91 | 1015.2 |
| 20260507052511 | 5 | 152 | 0.0 | 3.2 | 0.08 | 0.28 | 0.28 | 90 | 1015.3 |
| 20260507052010 | 5 | 0 | 0.0 | 3.2 | 0.05 | 0.25 | 0.25 | 90 | 1015.3 |
| 20260507051529 | 5 | 253 | 0.0 | 6.4 | 0.05 | 0.25 | 0.25 | 90 | 1015.2 |
| 20260507051010 | 5 | 267 | 1.6 | 9.7 | 0.05 | 0.25 | 0.25 | 89 | 1015.2 |
| 20260507050511 | 5 | 223 | 1.6 | 9.7 | 0.03 | 0.23 | 0.23 | 90 | 1015.2 |
| 20260507050029 | 5 | 269 | 0.0 | 1.6 | 0.05 | 0.23 | 0.23 | 91 | 1015.2 |
| 20260507045510 | 5 | 206 | 0.0 | 1.6 | 0.03 | 0.20 | 0.20 | 91 | 1015.1 |
| 20260507045009 | 5 | 0 | 0.0 | 1.6 | 0.03 | 0.20 | 0.20 | 92 | 1015.0 |
| 20260507044530 | 5 | 0 | 0.0 | 0.0 | 0.03 | 0.20 | 0.20 | 92 | 1015.0 |
| 20260507044009 | 5 | 0 | 0.0 | 0.0 | 0.03 | 0.20 | 0.20 | 91 | 1015.0 |
| 20260507043509 | 5 | 0 | 0.0 | 0.0 | 0.05 | 0.20 | 0.20 | 91 | 1014.9 |
| 20260507043035 | 5 | 0 | 0.0 | 0.0 | 0.05 | 0.20 | 0.20 | 91 | 1014.9 |
| 20260507042510 | 5 | 0 | 0.0 | 0.0 | 0.05 | 0.20 | 0.20 | 91 | 1014.8 |
| 20260507042012 | 5 | 0 | 0.0 | 0.0 | 0.05 | 0.20 | 0.20 | 91 | 1014.8 |
| 20260507041528 | 5 | 0 | 0.0 | 0.0 | 0.05 | 0.20 | 0.20 | 90 | 1014.7 |
| 20260507041010 | 5 | 0 | 0.0 | 1.6 | 0.05 | 0.20 | 0.20 | 90 | 1014.7 |
| 20260507040510 | 6 | 0 | 0.0 | 1.6 | 0.03 | 0.18 | 0.18 | 89 | 1014.7 |
| 20260507040029 | 6 | 0 | 0.0 | 1.6 | 0.05 | 0.18 | 0.18 | 88 | 1014.6 |
| 20260507035507 | 6 | 0 | 0.0 | 1.6 | 0.05 | 0.18 | 0.18 | 86 | 1014.5 |
| 20260507035011 | 6 | 0 | 0.0 | 1.6 | 0.05 | 0.18 | 0.18 | 84 | 1014.6 |
| 20260507034530 | 6 | 0 | 0.0 | 1.6 | 0.05 | 0.18 | 0.18 | 84 | 1014.5 |
| 20260507034012 | 6 | 0 | 0.0 | 1.6 | 0.05 | 0.18 | 0.18 | 84 | 1014.6 |
| 20260507033510 | 6 | 0 | 0.0 | 1.6 | 0.03 | 0.15 | 0.15 | 84 | 1014.4 |
| 20260507033029 | 6 | 157 | 0.0 | 1.6 | 0.03 | 0.15 | 0.15 | 83 | 1014.5 |
| 20260507032510 | 6 | 157 | 0.0 | 1.6 | 0.03 | 0.15 | 0.15 | 83 | 1014.5 |
| 20260507032012 | 6 | 0 | 0.0 | 4.8 | 0.03 | 0.15 | 0.15 | 82 | 1014.4 |
| 20260507031528 | 6 | 179 | 1.6 | 4.8 | 0.03 | 0.15 | 0.15 | 81 | 1014.4 |
| 20260507031008 | 6 | 248 | 0.0 | 3.2 | 0.03 | 0.15 | 0.15 | 82 | 1014.3 |
| 20260507030512 | 6 | 288 | 0.0 | 3.2 | 0.03 | 0.15 | 0.15 | 84 | 1014.3 |
| 20260507030032 | 6 | 0 | 0.0 | 3.2 | 0.00 | 0.13 | 0.13 | 88 | 1014.3 |
| 20260507025509 | 6 | 144 | 1.6 | 3.2 | 0.00 | 0.13 | 0.13 | 86 | 1014.2 |
| 20260507025009 | 6 | 0 | 0.0 | 1.6 | 0.00 | 0.13 | 0.13 | 86 | 1014.3 |
| 20260507024528 | 6 | 0 | 0.0 | 1.6 | 0.00 | 0.13 | 0.13 | 86 | 1014.2 |
| 20260507024008 | 6 | 0 | 0.0 | 1.6 | 0.00 | 0.13 | 0.13 | 85 | 1014.2 |
| 20260507023512 | 6 | 0 | 0.0 | 0.0 | 0.00 | 0.13 | 0.13 | 86 | 1014.1 |
| 20260507023030 | 6 | 0 | 0.0 | 0.0 | 0.00 | 0.13 | 0.13 | 85 | 1014.1 |
| 20260507022509 | 6 | 0 | 0.0 | 0.0 | 0.00 | 0.13 | 0.13 | 84 | 1014.0 |
| 20260507022009 | 7 | 0 | 0.0 | 0.0 | 0.03 | 0.13 | 0.13 | 85 | 1014.0 |
| 20260507021530 | 7 | 0 | 0.0 | 0.0 | 0.03 | 0.13 | 0.13 | 83 | 1013.8 |
| 20260507021012 | 7 | 0 | 0.0 | 0.0 | 0.03 | 0.13 | 0.13 | 83 | 1013.9 |
| 20260507020510 | 7 | 0 | 0.0 | 1.6 | 0.03 | 0.13 | 0.13 | 81 | 1014.0 |
| 20260507020033 | 7 | 0 | 0.0 | 1.6 | 0.03 | 0.13 | 0.13 | 82 | 1013.9 |
| 20260507015509 | 7 | 0 | 0.0 | 1.6 | 0.03 | 0.13 | 0.13 | 82 | 1013.9 |
| 20260507015013 | 7 | 0 | 0.0 | 1.6 | 0.03 | 0.13 | 0.13 | 82 | 1013.9 |
| 20260507014528 | 7 | 0 | 0.0 | 6.4 | 0.03 | 0.13 | 0.13 | 82 | 1013.8 |
| 20260507014009 | 7 | 278 | 0.0 | 6.4 | 0.03 | 0.13 | 0.13 | 80 | 1013.8 |
| 20260507013506 | 7 | 244 | 1.6 | 4.8 | 0.03 | 0.13 | 0.13 | 78 | 1013.8 |
| 20260507013036 | 7 | 238 | 0.0 | 3.2 | 0.03 | 0.13 | 0.13 | 80 | 1013.8 |
| 20260507012513 | 7 | 278 | 1.6 | 4.8 | 0.03 | 0.13 | 0.13 | 80 | 1013.7 |
| 20260507012014 | 7 | 291 | 1.6 | 4.8 | 0.00 | 0.10 | 0.10 | 79 | 1013.8 |
| 20260507011536 | 7 | 287 | 1.6 | 3.2 | 0.00 | 0.10 | 0.10 | 79 | 1013.8 |
| 20260507011009 | 7 | 0 | 1.6 | 6.4 | 0.00 | 0.10 | 0.10 | 79 | 1013.7 |
| 20260507010509 | 7 | 277 | 1.6 | 9.7 | 0.00 | 0.10 | 0.10 | 77 | 1013.7 |
| 20260507010029 | 7 | 260 | 3.2 | 9.7 | 0.00 | 0.10 | 0.10 | 76 | 1013.6 |
| 20260507005515 | 7 | 246 | 1.6 | 9.7 | 0.00 | 0.10 | 0.10 | 73 | 1013.6 |
| 20260507005009 | 7 | 215 | 3.2 | 9.7 | 0.00 | 0.10 | 0.10 | 72 | 1013.5 |
| 20260507004528 | 7 | 265 | 1.6 | 8.0 | 0.00 | 0.10 | 0.10 | 73 | 1013.4 |
| 20260507004010 | 7 | 276 | 0.0 | 3.2 | 0.00 | 0.10 | 0.10 | 76 | 1013.4 |
| 20260507003511 | 7 | 0 | 0.0 | 4.8 | 0.00 | 0.10 | 0.10 | 76 | 1013.4 |
| 20260507003029 | 7 | 290 | 1.6 | 4.8 | 0.00 | 0.10 | 0.10 | 74 | 1013.4 |
| 20260507002507 | 7 | 261 | 1.6 | 4.8 | 0.00 | 0.10 | 0.10 | 76 | 1013.4 |
| 20260507002011 | 7 | 277 | 0.0 | 6.4 | 0.00 | 0.10 | 0.10 | 78 | 1013.4 |
| 20260507001533 | 7 | 290 | 1.6 | 6.4 | 0.00 | 0.10 | 0.10 | 78 | 1013.4 |
| 20260507001009 | 7 | 271 | 1.6 | 6.4 | 0.00 | 0.10 | 0.10 | 78 | 1013.3 |
| 20260507000514 | 7 | 263 | 1.6 | 6.4 | 0.00 | 0.10 | 0.10 | 78 | 1013.2 |
| 20260507000030 | 7 | 202 | 1.6 | 6.4 | 0.00 | 0.10 | 0.10 | 81 | 1013.3 |
| 20260506235508 | 7 | 319 | 0.0 | 1.6 | 0.00 | 0.10 | 0.10 | 84 | 1013.2 |
| 20260506235006 | 7 | 0 | 0.0 | 1.6 | 0.00 | 0.10 | 0.10 | 86 | 1013.1 |
| 20260506234536 | 7 | 282 | 0.0 | 1.6 | 0.00 | 0.10 | 0.10 | 84 | 1013.2 |
| 20260506234010 | 7 | 0 | 0.0 | 9.7 | 0.00 | 0.10 | 0.10 | 86 | 1013.1 |
| 20260506233507 | 7 | 0 | 0.0 | 9.7 | 0.00 | 0.10 | 0.10 | 84 | 1013.1 |
| 20260506233029 | 6 | 133 | 1.6 | 8.0 | 0.00 | 0.10 | 0.10 | 83 | 1013.0 |
| 20260506232510 | 6 | 80 | 0.0 | 1.6 | 0.03 | 0.10 | 0.10 | 86 | 1013.1 |
| 20260506232013 | 6 | 0 | 0.0 | 3.2 | 0.03 | 0.10 | 0.10 | 89 | 1013.1 |
| 20260506231533 | 6 | 68 | 0.0 | 3.2 | 0.05 | 0.10 | 0.10 | 88 | 1012.9 |
| 20260506231014 | 6 | 50 | 0.0 | 1.6 | 0.08 | 0.10 | 0.10 | 89 | 1013.1 |
| 20260506230509 | 6 | 51 | 0.0 | 1.6 | 0.08 | 0.10 | 0.10 | 88 | 1013.0 |
| 20260506230026 | 6 | 0 | 0.0 | 0.0 | 0.08 | 0.10 | 0.10 | 90 | 1013.0 |
| 20260506225511 | 6 | 0 | 0.0 | 1.6 | 0.08 | 0.10 | 0.10 | 90 | 1012.9 |
| 20260506225010 | 6 | 0 | 0.0 | 1.6 | 0.08 | 0.10 | 0.10 | 89 | 1012.9 |
| 20260506224530 | 6 | 293 | 0.0 | 1.6 | 0.08 | 0.10 | 0.10 | 89 | 1012.9 |
| 20260506224009 | 6 | 0 | 0.0 | 1.6 | 0.08 | 0.10 | 0.10 | 88 | 1012.9 |
| 20260506223508 | 6 | 0 | 0.0 | 1.6 | 0.08 | 0.10 | 0.10 | 88 | 1012.9 |
| 20260506223031 | 6 | 0 | 0.0 | 1.6 | 0.08 | 0.10 | 0.10 | 87 | 1013.0 |
| 20260506222507 | 6 | 286 | 0.0 | 1.6 | 0.05 | 0.08 | 0.08 | 85 | 1012.8 |
| 20260506222010 | 6 | 0 | 0.0 | 4.8 | 0.05 | 0.08 | 0.08 | 85 | 1013.0 |
| 20260506221529 | 7 | 249 | 1.6 | 9.7 | 0.03 | 0.05 | 0.05 | 81 | 1012.9 |
| 20260506221011 | 7 | 274 | 3.2 | 9.7 | 0.00 | 0.03 | 0.03 | 76 | 1012.8 |
| 20260506220509 | 8 | 284 | 1.6 | 6.4 | 0.00 | 0.03 | 0.03 | 73 | 1012.8 |
| 20260506220030 | 8 | 270 | 1.6 | 4.8 | 0.00 | 0.03 | 0.03 | 71 | 1012.5 |
| 20260506215508 | 8 | 258 | 1.6 | 6.4 | 0.00 | 0.03 | 0.03 | 70 | 1012.7 |
| 20260506215010 | 8 | 175 | 3.2 | 6.4 | 0.00 | 0.03 | 0.03 | 70 | 1012.5 |
| 20260506214529 | 8 | 245 | 3.2 | 6.4 | 0.00 | 0.03 | 0.03 | 70 | 1012.5 |
| 20260506214011 | 8 | 294 | 3.2 | 9.7 | 0.00 | 0.03 | 0.03 | 73 | 1012.5 |
| 20260506213511 | 8 | 285 | 3.2 | 9.7 | 0.00 | 0.03 | 0.03 | 73 | 1012.6 |
| 20260506213028 | 8 | 273 | 3.2 | 14.5 | 0.00 | 0.03 | 0.03 | 73 | 1012.5 |
| 20260506212510 | 8 | 250 | 3.2 | 14.5 | 0.00 | 0.03 | 0.03 | 71 | 1012.4 |
| 20260506212011 | 8 | 157 | 1.6 | 4.8 | 0.00 | 0.03 | 0.03 | 68 | 1012.4 |
| 20260506211529 | 8 | 285 | 0.0 | 9.7 | 0.00 | 0.03 | 0.03 | 67 | 1012.4 |
| 20260506211009 | 8 | 253 | 1.6 | 9.7 | 0.00 | 0.03 | 0.03 | 69 | 1012.3 |
| 20260506210510 | 8 | 168 | 1.6 | 8.0 | 0.00 | 0.03 | 0.03 | 70 | 1012.3 |
| 20260506210027 | 8 | 253 | 3.2 | 11.3 | 0.00 | 0.03 | 0.03 | 69 | 1012.1 |
| 20260506205509 | 8 | 245 | 3.2 | 11.3 | 0.00 | 0.03 | 0.03 | 70 | 1012.3 |
| 20260506205009 | 8 | 263 | 3.2 | 11.3 | 0.00 | 0.03 | 0.03 | 69 | 1012.2 |
| 20260506204533 | 8 | 225 | 1.6 | 6.4 | 0.00 | 0.03 | 0.03 | 67 | 1012.2 |
| 20260506204011 | 8 | 265 | 1.6 | 4.8 | 0.00 | 0.03 | 0.03 | 68 | 1012.1 |
| 20260506203508 | 8 | 150 | 0.0 | 3.2 | 0.00 | 0.03 | 0.03 | 69 | 1012.2 |
| 20260506203043 | 7 | 277 | 1.6 | 4.8 | 0.00 | 0.03 | 0.03 | 69 | 1012.3 |
| 20260506202509 | 7 | 0 | 1.6 | 4.8 | 0.00 | 0.03 | 0.03 | 71 | 1012.0 |
| 20260506202011 | 7 | 273 | 1.6 | 3.2 | 0.00 | 0.03 | 0.03 | 71 | 1012.0 |
| 20260506201609 | 7 | 255 | 0.0 | 3.2 | 0.00 | 0.03 | 0.03 | 73 | 1012.0 |
| 20260506201010 | 7 | 279 | 0.0 | 3.2 | 0.00 | 0.03 | 0.03 | 74 | 1011.9 |
| 20260506200510 | 7 | 0 | 0.0 | 3.2 | 0.00 | 0.03 | 0.03 | 78 | 1011.9 |
| 20260506200031 | 7 | 291 | 0.0 | 3.2 | 0.00 | 0.03 | 0.03 | 75 | 1011.8 |
| 20260506195510 | 7 | 294 | 1.6 | 3.2 | 0.00 | 0.03 | 0.03 | 76 | 1011.9 |
| 20260506195010 | 7 | 55 | 1.6 | 3.2 | 0.00 | 0.03 | 0.03 | 75 | 1011.9 |
| 20260506194527 | 7 | 338 | 0.0 | 3.2 | 0.00 | 0.03 | 0.03 | 75 | 1011.9 |
| 20260506194012 | 7 | 285 | 0.0 | 3.2 | 0.00 | 0.03 | 0.03 | 78 | 1011.9 |
| 20260506193508 | 7 | 280 | 0.0 | 3.2 | 0.00 | 0.03 | 0.03 | 77 | 1011.9 |
| 20260506193028 | 6 | 0 | 0.0 | 3.2 | 0.03 | 0.03 | 0.03 | 77 | 1011.8 |
| 20260506192507 | 6 | 0 | 0.0 | 3.2 | 0.03 | 0.03 | 0.03 | 78 | 1011.8 |
| 20260506192009 | 6 | 267 | 1.6 | 3.2 | 0.03 | 0.03 | 0.03 | 76 | 1011.8 |
| 20260506191530 | 6 | 198 | 0.0 | 3.2 | 0.03 | 0.03 | 0.03 | 78 | 1011.7 |
| 20260506191010 | 6 | 97 | 0.0 | 3.2 | 0.03 | 0.03 | 0.03 | 79 | 1011.8 |
| 20260506190511 | 6 | 148 | 0.0 | 3.2 | 0.03 | 0.03 | 0.03 | 80 | 1011.8 |